Regional Weather Roundup
Issued by NWS Sioux Falls, SD

Home | Current Version | Previous Version | Text Only | Print | Product List | Glossary Off
Versions: 1 2 3 4 5 6 7 8 9 10 11 12 13 14 15 16 17 18 19 20 21 22 23 24 25 26 27 28 29 30 31 32 33 34 35 36 37 38 39 40 41 42 43 44 45 46 47 48 49 50

000
ASUS43 KFSD 250410
RWRFSD

WEATHER ROUNDUP FOR SE SOUTH DAKOTA/SW MINNESOTA/NW IOWA
NATIONAL WEATHER SERVICE SIOUX FALLS SD
1100 PM CDT THU JUL 24 2014

NOTE: "FAIR" INDICATES FEW OR NO CLOUDS BELOW 12,000 FEET WITH NO
SIGNIFICANT WEATHER AND OR OBSTRUCTIONS TO VISIBILITY.


SDZ038>040-050-052>070-250500-
SOUTHEAST SOUTH DAKOTA

CITY           SKY/WX    TMP DP  RH WIND       PRES   REMARKS
CHAMBERLAIN    MOCLDY    79  69  71 S10       29.66F
HURON          PTCLDY    71  63  75 SE15G25   29.70F
MADISON        FAIR      68  66  94 SE12G22   29.81F
MITCHELL       MOCLDY    74  64  71 S16G24    29.72F
SIOUX FALLS    MOCLDY    71  62  73 SE14      29.81S
WINNER         FAIR      84  67  56 S21G30    29.67R
YANKTON        CLOUDY    73  63  68 S18       29.77F
$$

MNZ071-072-080-081-089-090-097-098-250500-
SOUTHWEST MINNESOTA

CITY           SKY/WX    TMP DP  RH WIND       PRES   REMARKS
FAIRMONT       MOCLDY    61  55  82 E6        29.94R
JACKSON        MOCLDY    64  59  82 SE7       29.92R
LUVERNE        MOCLDY    66  61  82 SE6       29.85F
MARSHALL       CLOUDY    66  59  77 SE8       29.86S
MONTEVIDEO     CLOUDY    66  61  82 S10       29.86F
PIPESTONE      MOCLDY    64  63  94 SE8       29.86S
REDWOOD FALLS  CLOUDY    67  61  81 SE9       29.89F
TRACY          CLOUDY    66  61  83 CALM      29.89R
WINDOM         CLOUDY    64  59  82 E5        29.92R
WORTHINGTON    PTCLDY    64  61  88 SE8       29.90R
$$

IAZ001>003-012>014-020>022-031-032-NEZ013-014-SDZ071-250500-
NORTHWEST IOWA

CITY           SKY/WX    TMP DP  RH WIND       PRES   REMARKS
CHEROKEE       PTCLDY    69  62  79 S12G18    29.87S
DENISON        PTCLDY    70  61  73 S12G24    29.87S
ESTHERVILLE    PTCLDY    60  59  96 SE8       29.92S
LE MARS        PTCLDY    72  63  73 S13G23    29.83F
ORANGE CITY    MOCLDY    70  59  68 S12G17    29.83F
SHELDON        PTCLDY    66  63  88 SE10      29.85F
SIOUX CITY     PTCLDY    74  61  63 S13G22    29.84S
SPENCER        CLEAR     63  60  90 SE9       29.89F
STORM LAKE     CLEAR     68  63  83 S14       29.90S
$$

ABBREVIATIONS USED IN REMARKS
   TC - TEMPERATURE IN CELSIUS
  WCI - WIND CHILL INDEX
   HX - HEAT INDEX
  VSB - VISIBILITY



USA.gov is the U.S. government's official web portal to all federal, state and local government web resources and services.